DLH2IH EDDF-LIMC

Flight info

Callsign DLH2IH
Flight time 1h 3m
Altitude 33000
Route ANEKI2L/18 ANEKI Y163 NATOR DCT DITON DCT BASGO Z424 RIXUV
Aircraft A321/M-SDE2E3FGIJ1LORWXYZ/HB1

Departure

Time 2026-05-05 18:47
Airport Frankfurt Main Airport (EDDF)

Arrival

Time 2026-05-05 19:50
Airport Milan Malpensa International Airport (LIMC)
Time Latitude Longitude Altitude Speed Heading
2026-05-05 18:03 50.04789 8.56760 356 ft 0 kts 115°
2026-05-05 18:04 50.04395 8.56166 346 ft 0 kts 156°
2026-05-05 18:34 50.04397 8.56165 349 ft 2 kts 156°
2026-05-05 18:34 50.04421 8.56151 346 ft 4 kts 169°
2026-05-05 18:34 50.04447 8.56149 354 ft 4 kts 198°
2026-05-05 18:35 50.04465 8.56168 349 ft 2 kts 249°
2026-05-05 18:35 50.04467 8.56176 346 ft 0 kts 249°
2026-05-05 18:37 50.04465 8.56171 352 ft 2 kts 249°
2026-05-05 18:38 50.04463 8.56161 353 ft 2 kts 249°
2026-05-05 18:38 50.04456 8.56134 356 ft 4 kts 250°
2026-05-05 18:38 50.04445 8.56086 348 ft 6 kts 247°
2026-05-05 18:38 50.04415 8.56038 346 ft 7 kts 206°
2026-05-05 18:39 50.04364 8.56047 349 ft 8 kts 159°
2026-05-05 18:39 50.04307 8.56077 346 ft 8 kts 174°
2026-05-05 18:39 50.04261 8.56021 350 ft 10 kts 240°
2026-05-05 18:39 50.04232 8.55918 346 ft 11 kts 249°
2026-05-05 18:40 50.04202 8.55796 346 ft 13 kts 249°
2026-05-05 18:40 50.04168 8.55654 355 ft 15 kts 250°
2026-05-05 18:40 50.04131 8.55496 353 ft 16 kts 250°
2026-05-05 18:40 50.04091 8.55324 354 ft 18 kts 250°
2026-05-05 18:41 50.04047 8.55139 349 ft 19 kts 249°
2026-05-05 18:41 50.04000 8.54943 349 ft 20 kts 249°
2026-05-05 18:41 50.03950 8.54733 350 ft 21 kts 250°
2026-05-05 18:41 50.03899 8.54520 349 ft 17 kts 249°
2026-05-05 18:42 50.03868 8.54395 355 ft 12 kts 244°
2026-05-05 18:42 50.03819 8.54287 352 ft 13 kts 236°
2026-05-05 18:42 50.03782 8.54150 354 ft 14 kts 250°
2026-05-05 18:42 50.03746 8.53996 355 ft 16 kts 250°
2026-05-05 18:43 50.03706 8.53827 350 ft 17 kts 249°
2026-05-05 18:43 50.03660 8.53647 346 ft 19 kts 246°
2026-05-05 18:43 50.03613 8.53454 348 ft 20 kts 250°
2026-05-05 18:43 50.03564 8.53247 346 ft 21 kts 250°
2026-05-05 18:44 50.03511 8.53031 351 ft 22 kts 249°
2026-05-05 18:44 50.03468 8.52861 354 ft 14 kts 247°
2026-05-05 18:44 50.03433 8.52730 355 ft 7 kts 247°
2026-05-05 18:44 50.03431 8.52725 349 ft 0 kts 247°
2026-05-05 18:45 50.03427 8.52707 346 ft 4 kts 247°
2026-05-05 18:45 50.03413 8.52660 353 ft 6 kts 240°
2026-05-05 18:45 50.03387 8.52602 346 ft 7 kts 221°
2026-05-05 18:46 50.03335 8.52595 349 ft 8 kts 179°
2026-05-05 18:46 50.03239 8.52593 346 ft 33 kts 181°
2026-05-05 18:46 50.02731 8.52601 350 ft 109 kts 180°
2026-05-05 18:46 50.01762 8.52609 353 ft 168 kts 180°
2026-05-05 18:47 50.00606 8.52632 1093 ft 161 kts 179°
2026-05-05 18:47 49.99503 8.52681 1868 ft 159 kts 178°
2026-05-05 18:47 49.98344 8.52752 2295 ft 173 kts 178°
2026-05-05 18:47 49.97102 8.52846 2780 ft 183 kts 178°
2026-05-05 18:48 49.95842 8.52961 3292 ft 190 kts 178°
2026-05-05 18:48 49.94466 8.53119 3832 ft 196 kts 176°
2026-05-05 18:48 49.93090 8.53338 4404 ft 201 kts 175°
2026-05-05 18:48 49.91604 8.53485 4932 ft 207 kts 179°
2026-05-05 18:49 49.90197 8.53559 5319 ft 219 kts 180°
2026-05-05 18:49 49.88660 8.53632 5765 ft 228 kts 180°
2026-05-05 18:49 49.87029 8.53698 6239 ft 237 kts 181°
2026-05-05 18:49 49.85361 8.53757 6685 ft 241 kts 180°
2026-05-05 18:50 49.83670 8.53811 7144 ft 246 kts 180°
2026-05-05 18:50 49.81916 8.53845 7499 ft 262 kts 181°
2026-05-05 18:50 49.80034 8.53944 7884 ft 274 kts 180°
2026-05-05 18:50 49.78061 8.53843 8650 ft 275 kts 186°
2026-05-05 18:51 49.76047 8.53527 9293 ft 283 kts 188°
2026-05-05 18:51 49.74216 8.53213 9873 ft 289 kts 187°
2026-05-05 18:51 49.72162 8.52897 10260 ft 307 kts 187°
2026-05-05 18:51 49.69977 8.52596 10574 ft 323 kts 186°
2026-05-05 18:52 49.67724 8.52319 10928 ft 336 kts 185°
2026-05-05 18:52 49.65373 8.52086 11584 ft 339 kts 185°
2026-05-05 18:52 49.62986 8.51898 12325 ft 340 kts 184°
2026-05-05 18:52 49.60622 8.51739 13096 ft 339 kts 183°
2026-05-05 18:53 49.58247 8.51577 13653 ft 345 kts 184°
2026-05-05 18:53 49.55839 8.51403 14238 ft 348 kts 184°
2026-05-05 18:53 49.53410 8.51216 14822 ft 351 kts 184°
2026-05-05 18:53 49.50964 8.51016 15401 ft 354 kts 184°
2026-05-05 18:54 49.48494 8.50810 15990 ft 358 kts 184°
2026-05-05 18:54 49.45995 8.50600 16570 ft 360 kts 184°
2026-05-05 18:54 49.43519 8.50391 17112 ft 363 kts 184°
2026-05-05 18:54 49.40986 8.50176 17641 ft 366 kts 184°
2026-05-05 18:55 49.38399 8.49956 18171 ft 369 kts 184°
2026-05-05 18:55 49.35826 8.49744 18683 ft 371 kts 183°
2026-05-05 18:55 49.33235 8.49532 19186 ft 374 kts 183°
2026-05-05 18:55 49.30630 8.49318 19682 ft 377 kts 183°
2026-05-05 18:56 49.27993 8.49098 20166 ft 380 kts 183°
2026-05-05 18:56 49.25378 8.48880 20629 ft 383 kts 183°
2026-05-05 18:56 49.22712 8.48656 21080 ft 385 kts 183°
2026-05-05 18:56 49.19992 8.48429 21524 ft 388 kts 183°
2026-05-05 18:57 49.17282 8.48208 21977 ft 391 kts 183°
2026-05-05 18:57 49.14565 8.47984 22410 ft 393 kts 183°
2026-05-05 18:57 49.11821 8.47755 22808 ft 396 kts 183°
2026-05-05 18:57 49.09099 8.47528 23204 ft 398 kts 183°
2026-05-05 18:58 49.06288 8.47300 23602 ft 400 kts 182°
2026-05-05 18:58 49.03535 8.47080 23787 ft 402 kts 182°
2026-05-05 18:58 49.00740 8.46853 23831 ft 402 kts 182°
2026-05-05 18:58 48.97944 8.46625 23832 ft 402 kts 182°
2026-05-05 18:59 48.95120 8.46398 23832 ft 402 kts 182°
2026-05-05 18:59 48.92324 8.46171 23832 ft 402 kts 183°
2026-05-05 18:59 48.89529 8.45941 23831 ft 402 kts 183°
2026-05-05 18:59 48.86733 8.45709 24018 ft 404 kts 183°
2026-05-05 19:00 48.83806 8.45468 24457 ft 406 kts 182°
2026-05-05 19:00 48.81070 8.45247 24847 ft 408 kts 183°
2026-05-05 19:00 48.78236 8.45018 25239 ft 410 kts 183°
2026-05-05 19:00 48.75384 8.44785 25614 ft 412 kts 183°
2026-05-05 19:01 48.72512 8.44550 26006 ft 414 kts 183°
2026-05-05 19:01 48.69633 8.44317 26366 ft 415 kts 183°
2026-05-05 19:01 48.66740 8.44086 26720 ft 417 kts 183°
2026-05-05 19:01 48.63836 8.43854 27067 ft 419 kts 183°
2026-05-05 19:02 48.60920 8.43620 27411 ft 421 kts 183°
2026-05-05 19:02 48.57992 8.43386 27757 ft 422 kts 183°
2026-05-05 19:02 48.55049 8.43151 28084 ft 424 kts 183°
2026-05-05 19:02 48.52101 8.42910 28410 ft 426 kts 183°
2026-05-05 19:03 48.49138 8.42668 28732 ft 427 kts 183°
2026-05-05 19:03 48.46161 8.42429 29040 ft 429 kts 183°
2026-05-05 19:03 48.43209 8.42192 29347 ft 431 kts 183°
2026-05-05 19:03 48.40175 8.41949 29644 ft 433 kts 183°
2026-05-05 19:04 48.37202 8.41710 29943 ft 434 kts 183°
2026-05-05 19:04 48.34142 8.41469 30233 ft 435 kts 183°
2026-05-05 19:04 48.31102 8.41230 30503 ft 438 kts 183°
2026-05-05 19:04 48.28098 8.40989 30765 ft 439 kts 183°
2026-05-05 19:05 48.25002 8.40739 31014 ft 440 kts 183°
2026-05-05 19:05 48.21942 8.40492 31249 ft 442 kts 183°
2026-05-05 19:05 48.18903 8.40248 31500 ft 442 kts 183°
2026-05-05 19:05 48.15797 8.40002 31820 ft 441 kts 183°
2026-05-05 19:06 48.12772 8.39764 32128 ft 440 kts 184°
2026-05-05 19:06 48.09715 8.39527 32425 ft 440 kts 184°
2026-05-05 19:06 48.06667 8.39289 32711 ft 439 kts 184°
2026-05-05 19:06 48.03614 8.39048 32838 ft 436 kts 184°
2026-05-05 19:07 48.00640 8.38812 32868 ft 423 kts 184°
2026-05-05 19:07 47.98667 8.38654 32869 ft 419 kts 184°
2026-05-05 19:07 47.91934 8.38118 32869 ft 416 kts 184°
2026-05-05 19:08 47.86157 8.37662 32878 ft 415 kts 184°
2026-05-05 19:08 47.80391 8.37217 32881 ft 415 kts 184°
2026-05-05 19:09 47.74755 8.36777 32891 ft 415 kts 184°
2026-05-05 19:09 47.69090 8.36332 32902 ft 416 kts 184°
2026-05-05 19:10 47.63303 8.35889 32903 ft 416 kts 184°
2026-05-05 19:10 47.57521 8.35441 32915 ft 416 kts 184°
2026-05-05 19:11 47.52690 8.35068 32911 ft 416 kts 184°
2026-05-05 19:11 47.46920 8.34628 32914 ft 415 kts 184°
2026-05-05 19:12 47.41143 8.34172 32913 ft 416 kts 185°
2026-05-05 19:12 47.36646 8.33820 32918 ft 416 kts 184°
2026-05-05 19:13 47.30829 8.33391 32925 ft 416 kts 182°
2026-05-05 19:13 47.25055 8.34059 32934 ft 416 kts 176°
2026-05-05 19:14 47.19290 8.34850 32935 ft 416 kts 177°
2026-05-05 19:14 47.13617 8.35619 32941 ft 416 kts 177°
2026-05-05 19:15 47.07844 8.36398 32940 ft 416 kts 177°
2026-05-05 19:15 47.02084 8.37185 32943 ft 416 kts 177°
2026-05-05 19:16 46.96397 8.37968 32495 ft 404 kts 177°
2026-05-05 19:16 46.93618 8.38348 32029 ft 399 kts 177°
2026-05-05 19:16 46.90863 8.38719 31541 ft 396 kts 177°
2026-05-05 19:17 46.88128 8.39088 31071 ft 393 kts 177°
2026-05-05 19:17 46.85420 8.39454 30593 ft 389 kts 177°
2026-05-05 19:17 46.82735 8.39814 30118 ft 387 kts 177°
2026-05-05 19:17 46.80067 8.40170 29643 ft 384 kts 177°
2026-05-05 19:18 46.77415 8.40529 29162 ft 381 kts 177°
2026-05-05 19:18 46.74790 8.40885 28675 ft 378 kts 177°
2026-05-05 19:18 46.72179 8.41238 28195 ft 376 kts 177°
2026-05-05 19:18 46.69589 8.41591 27950 ft 374 kts 177°
2026-05-05 19:19 46.66998 8.41939 27942 ft 375 kts 177°
2026-05-05 19:19 46.64396 8.42286 27949 ft 376 kts 177°
2026-05-05 19:19 46.61798 8.42634 27898 ft 375 kts 177°
2026-05-05 19:19 46.59207 8.42981 27446 ft 372 kts 177°
2026-05-05 19:20 46.56640 8.43325 26978 ft 369 kts 177°
2026-05-05 19:20 46.54092 8.43665 26493 ft 366 kts 177°
2026-05-05 19:20 46.51560 8.44004 26005 ft 364 kts 177°
2026-05-05 19:20 46.49045 8.44343 25534 ft 362 kts 177°
2026-05-05 19:21 46.46545 8.44676 25055 ft 360 kts 177°
2026-05-05 19:21 46.44060 8.45005 24586 ft 357 kts 177°
2026-05-05 19:21 46.41591 8.45329 24121 ft 355 kts 177°
2026-05-05 19:21 46.39140 8.45653 23652 ft 353 kts 177°
2026-05-05 19:22 46.36704 8.45979 23185 ft 350 kts 177°
2026-05-05 19:22 46.34284 8.46299 22659 ft 349 kts 177°
2026-05-05 19:22 46.31839 8.46620 21842 ft 356 kts 177°
2026-05-05 19:22 46.29359 8.46945 21249 ft 357 kts 176°
2026-05-05 19:23 46.26900 8.47270 20715 ft 354 kts 177°
2026-05-05 19:23 46.24458 8.47604 20187 ft 352 kts 176°
2026-05-05 19:23 46.22027 8.47948 19684 ft 350 kts 176°
2026-05-05 19:23 46.19616 8.48292 19222 ft 346 kts 176°
2026-05-05 19:24 46.17227 8.48640 18981 ft 344 kts 176°
2026-05-05 19:24 46.14846 8.48990 18982 ft 346 kts 176°
2026-05-05 19:24 46.12444 8.49338 18992 ft 347 kts 175°
2026-05-05 19:24 46.10078 8.50034 18960 ft 348 kts 164°
2026-05-05 19:25 46.07811 8.51214 18495 ft 345 kts 162°
2026-05-05 19:25 46.05565 8.52428 17973 ft 344 kts 161°
2026-05-05 19:25 46.03342 8.53639 17483 ft 340 kts 161°
2026-05-05 19:25 46.01138 8.54839 17058 ft 334 kts 161°
2026-05-05 19:26 45.99021 8.55986 16911 ft 319 kts 161°
2026-05-05 19:26 45.96962 8.57099 16579 ft 313 kts 162°
2026-05-05 19:26 45.94931 8.58192 16176 ft 310 kts 162°
2026-05-05 19:26 45.92917 8.59272 15763 ft 308 kts 162°
2026-05-05 19:27 45.90925 8.60347 15430 ft 302 kts 160°
2026-05-05 19:27 45.89109 8.61756 15313 ft 293 kts 147°
2026-05-05 19:27 45.87528 8.63547 15076 ft 287 kts 143°
2026-05-05 19:27 45.85983 8.65347 14745 ft 284 kts 143°
2026-05-05 19:28 45.84459 8.67122 14405 ft 283 kts 143°
2026-05-05 19:28 45.82929 8.68898 14050 ft 281 kts 143°
2026-05-05 19:28 45.81414 8.70652 13697 ft 279 kts 143°
2026-05-05 19:28 45.79905 8.72396 13337 ft 278 kts 143°
2026-05-05 19:29 45.78403 8.74132 13016 ft 276 kts 143°
2026-05-05 19:29 45.76916 8.75847 12975 ft 276 kts 145°
2026-05-05 19:29 45.75290 8.77299 12980 ft 275 kts 154°
2026-05-05 19:29 45.73596 8.78592 12980 ft 276 kts 154°
2026-05-05 19:30 45.71918 8.79880 12742 ft 273 kts 154°
2026-05-05 19:30 45.70249 8.81181 12377 ft 272 kts 154°
2026-05-05 19:30 45.68587 8.82478 12023 ft 271 kts 154°
2026-05-05 19:30 45.66935 8.83764 11674 ft 270 kts 154°
2026-05-05 19:31 45.65291 8.85036 11317 ft 269 kts 154°
2026-05-05 19:31 45.63646 8.86299 10963 ft 268 kts 154°
2026-05-05 19:31 45.62001 8.87554 10610 ft 267 kts 154°
2026-05-05 19:31 45.60371 8.88789 10256 ft 266 kts 154°
2026-05-05 19:32 45.58736 8.90019 9904 ft 265 kts 154°
2026-05-05 19:32 45.57108 8.91237 9558 ft 264 kts 154°
2026-05-05 19:32 45.55481 8.92444 9213 ft 263 kts 154°
2026-05-05 19:32 45.53860 8.93637 8873 ft 262 kts 154°
2026-05-05 19:33 45.52247 8.94822 8545 ft 260 kts 154°
2026-05-05 19:33 45.50642 8.95998 8191 ft 259 kts 154°
2026-05-05 19:33 45.49043 8.97166 7867 ft 257 kts 154°
2026-05-05 19:33 45.47452 8.98326 7516 ft 256 kts 154°
2026-05-05 19:34 45.45870 8.99477 7190 ft 255 kts 154°
2026-05-05 19:34 45.44292 9.00624 6863 ft 254 kts 154°
2026-05-05 19:34 45.42646 9.01439 6520 ft 249 kts 177°
2026-05-05 19:35 45.39752 8.99368 5982 ft 243 kts 239°
2026-05-05 19:35 45.39083 8.97178 5976 ft 240 kts 245°
2026-05-05 19:35 45.38151 8.95262 5686 ft 235 kts 219°
2026-05-05 19:35 45.36689 8.94325 5344 ft 233 kts 185°
2026-05-05 19:36 45.35624 8.94434 5106 ft 233 kts 165°
2026-05-05 19:36 45.34022 8.95101 4705 ft 234 kts 169°
2026-05-05 19:36 45.32427 8.95557 4340 ft 233 kts 169°
2026-05-05 19:36 45.30839 8.96019 4038 ft 232 kts 169°
2026-05-05 19:37 45.29265 8.96472 3982 ft 233 kts 169°
2026-05-05 19:37 45.27670 8.96919 3983 ft 233 kts 168°
2026-05-05 19:37 45.26073 8.97365 3985 ft 234 kts 169°
2026-05-05 19:37 45.24477 8.97805 3989 ft 234 kts 169°
2026-05-05 19:38 45.22880 8.98242 3990 ft 233 kts 169°
2026-05-05 19:38 45.21282 8.98673 3990 ft 233 kts 169°
2026-05-05 19:38 45.19688 8.99099 3990 ft 232 kts 169°
2026-05-05 19:38 45.18160 8.99510 3998 ft 216 kts 169°
2026-05-05 19:39 45.16688 8.99771 3981 ft 212 kts 186°
2026-05-05 19:39 45.15347 8.98990 3987 ft 212 kts 221°
2026-05-05 19:39 45.14580 8.97250 3984 ft 212 kts 255°
2026-05-05 19:39 45.14308 8.95200 3994 ft 213 kts 261°
2026-05-05 19:40 45.14347 8.93125 3981 ft 213 kts 289°
2026-05-05 19:40 45.15193 8.91441 3979 ft 213 kts 323°
2026-05-05 19:40 45.16473 8.90369 3983 ft 215 kts 332°
2026-05-05 19:40 45.17814 8.89425 3986 ft 215 kts 334°
2026-05-05 19:41 45.19180 8.88484 3995 ft 227 kts 334°
2026-05-05 19:41 45.20633 8.87484 3969 ft 235 kts 334°
2026-05-05 19:41 45.22114 8.86474 3977 ft 237 kts 334°
2026-05-05 19:41 45.23604 8.85501 3985 ft 236 kts 335°
2026-05-05 19:42 45.25107 8.84546 3987 ft 236 kts 335°
2026-05-05 19:42 45.26597 8.83565 3996 ft 236 kts 339°
2026-05-05 19:42 45.28172 8.82912 3998 ft 236 kts 347°
2026-05-05 19:42 45.29742 8.82470 4000 ft 221 kts 349°
2026-05-05 19:43 45.31226 8.82073 3995 ft 216 kts 349°
2026-05-05 19:43 45.32696 8.81676 3999 ft 215 kts 349°
2026-05-05 19:43 45.34171 8.81274 3992 ft 215 kts 349°
2026-05-05 19:43 45.35643 8.80871 4002 ft 215 kts 349°
2026-05-05 19:44 45.37113 8.80469 4002 ft 215 kts 349°
2026-05-05 19:44 45.38583 8.80067 4009 ft 215 kts 349°
2026-05-05 19:44 45.40049 8.79666 4013 ft 215 kts 349°
2026-05-05 19:44 45.41514 8.79265 3999 ft 212 kts 349°
2026-05-05 19:45 45.42970 8.78865 4003 ft 215 kts 348°
2026-05-05 19:45 45.44423 8.78467 3981 ft 208 kts 349°
2026-05-05 19:45 45.45814 8.78086 3801 ft 198 kts 349°
2026-05-05 19:45 45.47136 8.77724 3558 ft 190 kts 348°
2026-05-05 19:46 45.48415 8.77372 3321 ft 184 kts 349°
2026-05-05 19:46 45.49641 8.77037 3083 ft 180 kts 349°
2026-05-05 19:46 45.50867 8.76700 2841 ft 178 kts 349°
2026-05-05 19:46 45.52101 8.76358 2601 ft 178 kts 348°
2026-05-05 19:47 45.53272 8.76037 2384 ft 165 kts 349°
2026-05-05 19:47 45.54289 8.75756 2172 ft 152 kts 349°
2026-05-05 19:47 45.55288 8.75482 1979 ft 146 kts 349°
2026-05-05 19:47 45.56275 8.75204 1790 ft 143 kts 348°
2026-05-05 19:48 45.57238 8.74930 1621 ft 140 kts 349°
2026-05-05 19:48 45.58193 8.74666 1436 ft 140 kts 348°
2026-05-05 19:48 45.59156 8.74409 1216 ft 141 kts 349°
2026-05-05 19:48 45.60113 8.74146 1050 ft 139 kts 350°
2026-05-05 19:49 45.61064 8.73881 900 ft 138 kts 349°
2026-05-05 19:49 45.61699 8.73708 787 ft 137 kts 350°
2026-05-05 19:49 45.62798 8.73405 729 ft 94 kts 350°
2026-05-05 19:49 45.63304 8.73273 739 ft 64 kts 348°
2026-05-05 19:50 45.63604 8.73175 748 ft 31 kts 336°
2026-05-05 19:50 45.63746 8.73033 749 ft 19 kts 319°
2026-05-05 19:50 45.63828 8.72892 751 ft 18 kts 298°
2026-05-05 19:50 45.63895 8.72746 753 ft 18 kts 304°
2026-05-05 19:51 45.63924 8.72631 756 ft 10 kts 260°
2026-05-05 19:51 45.63861 8.72597 755 ft 12 kts 172°
2026-05-05 19:51 45.63761 8.72622 752 ft 17 kts 171°
2026-05-05 19:51 45.63630 8.72661 750 ft 21 kts 170°
2026-05-05 19:52 45.63493 8.72699 745 ft 20 kts 169°
2026-05-05 19:52 45.63411 8.72635 745 ft 14 kts 244°
2026-05-05 19:52 45.63388 8.72492 746 ft 15 kts 259°
2026-05-05 19:52 45.63368 8.72348 748 ft 13 kts 257°
2026-05-05 19:53 45.63350 8.72215 746 ft 15 kts 260°
2026-05-05 19:53 45.63332 8.72068 744 ft 15 kts 258°
2026-05-05 19:53 45.63328 8.72044 747 ft 0 kts 257°
2026-05-05 19:53 45.63327 8.72035 745 ft 0 kts 258°
2026-05-05 19:54 45.63323 8.72015 748 ft 4 kts 251°
2026-05-05 19:54 45.63294 8.71979 746 ft 8 kts 201°
2026-05-05 19:54 45.63226 8.71985 744 ft 12 kts 168°
2026-05-05 19:55 45.63169 8.72001 742 ft 14 kts 169°
2026-05-05 19:55 45.63068 8.72028 743 ft 16 kts 170°
2026-05-05 19:55 45.62953 8.72062 739 ft 18 kts 170°
2026-05-05 19:55 45.62823 8.72099 738 ft 19 kts 166°
2026-05-05 19:56 45.62703 8.72132 736 ft 17 kts 171°
2026-05-05 19:56 45.62585 8.72165 733 ft 14 kts 169°
2026-05-05 19:56 45.62513 8.72182 732 ft 10 kts 169°
2026-05-05 19:56 45.62451 8.72199 731 ft 9 kts 169°
2026-05-05 19:57 45.62392 8.72201 731 ft 6 kts 210°
2026-05-05 19:57 45.62382 8.72187 729 ft 1 kts 232°
2026-05-05 19:57 45.62380 8.72182 730 ft 0 kts 232°
2026-05-05 19:58 45.62376 8.72171 731 ft 4 kts 244°
2026-05-05 19:58 45.62367 8.72128 733 ft 5 kts 256°
2026-05-05 19:58 45.62358 8.72068 730 ft 7 kts 259°
2026-05-05 19:58 45.62348 8.71991 730 ft 9 kts 258°
2026-05-05 19:59 45.62334 8.71896 728 ft 11 kts 259°
2026-05-05 19:59 45.62320 8.71788 730 ft 11 kts 260°
2026-05-05 19:59 45.62309 8.71692 730 ft 9 kts 270°
2026-05-05 19:59 45.62343 8.71658 732 ft 4 kts 347°
2026-05-05 20:00 45.62360 8.71652 730 ft 1 kts 348°
2026-05-05 20:00 45.62368 8.71650 731 ft 1 kts 348°
2026-05-05 20:00 45.62377 8.71647 731 ft 2 kts 349°
2026-05-05 20:00 45.62382 8.71646 731 ft 0 kts 349°
2026-05-05 20:01 45.62384 8.71645 731 ft 0 kts 349°
2026-05-05 20:01 45.62386 8.71645 731 ft 0 kts 349°
2026-05-05 20:01 45.62386 8.71644 731 ft 0 kts 349°